AQI (18)

Current Conditions for Foresthill, CA. Sunny, Dry   
Visibility: 10 miles
Space WX Alerts: N/A ( Latest Alert ) - N/A

  Summary / Temperature 

Current Temperature
94.4°F
34.7°C
(24/hr Ago)
94.2°F
(Apparent temp)
89.1°F
Uncomfortably Hot
Heat Index
90.2°F 

94.4°F/ 34.7°C
Evident discomfort

 Temp Rate:

 24/hr Difference:

 Avg Running Temp:

 Todays High:

 Todays Low:

 Y-days High:

 Y-days Low:

 Todays HeatIdx:

 Y-days HeatIdx:

 Evapotranspiration:

+1.2°F/hr 

+0.2°F

93.8°F

95.0°F 2:37pm

69.7°F 6:35am

96.0°F 4:38pm

68.9°F 7:32am

91.3°F 2:38pm

92.2°F 4:39pm

0.198 in

115' Above Ground

 Temperature:

 6'AGL VRS 115'AGL:

 Avg Running Temp:

 Humidity:

 Todays High:

 Todays Low:

 Y-days High:

 Y-days Low:

91.0°F 

-3.4°F

91.3°F

19% 

92.0°F 2:37pm

73.0°F 5:53am

92.0°F 3:34pm

72.0°F 3:30am

Temp & Humidity Graphs

  Wind 

Wind Speed

 5.0 mph

Gusting to

 15.0 mph

Wind from SSE

159°  SSE

Light breeze

 Avg speed:

 Wind Run:

 Peak Gust:

  6.0 mph 

55.0 miles

  21.0 mph 1:36am

  Almanac  

Moon age: 22 days,2 hours,39 minutes,51%

Last Quarter
50%
Illuminated
22 days in cycle

 Moonrise:

 Moonset:

 Sunrise:

 Sunset:

 Solar Noon:

12:35am

1:06pm

5:49am

8:30pm

1:09pm

1min 7s less daylight tomorrow 

  Solar Radiation 

(Current Solar)
  766 W/m2 (84%)
(Todays High)
 916 W/m2@12:59pm
Feels like: 108°F in the sun

Rain

 Rain Today:

 Rain Rate (/hr):

 Rain last hour:

 Rain Yesterday:

 This Month:

 Season Total:

29 Days Since Last Rain Day

0.00 in

0.000 in

0.00 in

0.00 in

0.00 in

0.00 in

Updated Time

Updated: 7/12/20  3:30pm

(Updated  sec ago)

Humidity & Barometer

 Humidity:

 Wetbulb:

 Dew Point:

 Barometer:

16% 

69.0°F 

41.3°F 

29.840 inHg 

 Baro Trend:  Falling Slowly 
Northern Calif
Preparedness
Fire 
Level 

    UV Index  

(Current UV)
6.0  High
(Todays High) @ 12:45pm
8.9   Very High

National Weather Service Forecast

This
Afternoon
This Afternoon: Sunny
Sunny
Tonight

Tonight: Clear
Clear
Monday

Monday: Sunny
Sunny
Monday
Night
Monday Night: Clear
Clear
Tuesday

Tuesday: Sunny
Sunny
Tuesday
Night
Tuesday Night: Clear
Clear
Hi 94 °F Lo 68 °F Hi 91 °F Lo 66 °F Hi 91 °F Lo 68 °F

Foresthill Probe 2 Stats  
Foresthill Probe 2: is located on Thomas Street
at 3000 feet. The main Foresthill Weather site
is located on Melody ln at the 2860 foot elevation

Light Air
93.4°F
34.1°C
Temp Rate:
+0.8°F
Calm
Gusting to
4.0 mph
(Humidity)
17%
Wind from WSW
240°  WSW
Updated: 12/07/20 - 15:31:09
 Todays High: 94.7°F 14:14
 Todays Low: 67.2°F 07:04
 Rain Today: 0.00 in
 Season Total: 0.00 in

Foresthill Wx: Monthly,Yearly, Highs and Lows 

Foresthill  
This Weather Data is coming from the main Foresthill
Weather site located on Melody ln at the 2860 foot
elevation
Not Foresthill Probe 2
Weather Data
Month
  High
Month
  Low
Year
High
Year
Low
Temp 96.0°F
7/11/20
59.1°F
7/7/20
96.0°F
7/11/20
28.3°F
2/3/20
Humidity 68%
7/3/20
13%
7/11/20
100%
1/8/20
12%
2/17/20
Heat Index 92.2°F
7/11/20
59.2°F
7/7/20
98.7°F
6/26/20
28.2°F
2/4/20
Wind Chill 96.0°F
7/11/20
57.8°F
7/7/20
96.0°F
7/11/20
14.7°F
2/3/20
Wind Gust 22 mph
7/7/20
0 mph
7/1/20
46 mph
2/9/20
0 mph
1/1/20
Barometer 30.05 in
7/4/20
29.74 in
7/1/20
30.59 in
1/5/20
29.57 in
6/28/20
ET 0.26 in
7/6/20
0.00 in
7/1/20
0.31 in
6/27/20
0.00 in
1/1/20
Dew Point 57.2°F
7/10/20
32.4°F
7/4/20
67.5°F
6/26/20
-2.6°F
2/3/20
Visible Satellite Pacific Satellite US Radar Satellite Imagery Sacramento,CA.  (click to enlarge)
NWS Weather Forecast - Summary
Updated: Sunday, July 12, 2020 - 2:28pm PDT
Hot and dry, with locally breezy Delta winds through Monday
NWS Weather Forecast: This Afternoon and Tonight (Updated: Sun, 12-Jul-2020 1:37pm PDT)
This
Afternoon
This Afternoon: Sunny
Sunny

Hi 94 °F
NWS forecast: Sunny, with a high near 94. Southwest wind around 8 mph.
Tonight

Tonight: Clear
Clear

Lo 68 °F
NWS forecast: Clear, with a low around 68. South southeast wind 5 to 9 mph.
YR.NO 10 Day Weather forecast
Last update: 07/12/2020 @ 06:28
Next update: 07/12/2020 @ 12:37
Provided by: 22
      Temperature Precipitation Pressure Wind  
Today
07/12/2020
13:00 18:00 93°F   29.90 inHg Gentle breeze from southwest 9 mph
  18:00 00:00 91°F   29.82 inHg Light breeze from southwest 7 mph
    (Click to enlarge)
meteogram

    Forecast for next 9 days

      Temperature Precip Pressure Wind  
Monday
07/13/2020
00:00 06:00 64°F   29.84 inHg Light breeze from east 6 mph
  06:00 12:00 61°F   29.81 inHg Light breeze from east 7 mph
  12:00 18:00 88°F   29.84 inHg Gentle breeze from southwest 8 mph
  18:00 00:00 86°F   29.80 inHg Light breeze from southwest 6 mph
      Temperature Precip Pressure Wind  
Tuesday
07/14/2020
00:00 06:00 64°F   29.83 inHg Light breeze from east 4 mph
  06:00 12:00 61°F   29.83 inHg Light breeze from east 4 mph
  12:00 18:00 86°F   29.87 inHg Light breeze from west-southwest 7 mph
  17:00 23:00 88°F   29.81 inHg Light breeze from west-southwest 6 mph
  23:00 05:00 68°F   29.86 inHg Light air from east 1 mph
      Temperature Precip Pressure Wind  
Wednesday
07/15/2020
05:00 11:00 59°F   29.84 inHg Light breeze from east 4 mph
  11:00 17:00 84°F   29.85 inHg Light breeze from west 6 mph
  17:00 23:00 88°F   29.81 inHg Light breeze from west-southwest 6 mph
  23:00 05:00 70°F   29.86 inHg Light air from east 3 mph
      Temperature Precip Pressure Wind  
Thursday
07/16/2020
05:00 11:00 59°F   29.84 inHg Light breeze from east 4 mph
  11:00 17:00 84°F   29.87 inHg Light breeze from west-southwest 6 mph
  17:00 23:00 86°F   29.85 inHg Light breeze from west-southwest 7 mph
  23:00 05:00 68°F   29.91 inHg Light air from east 3 mph
      Temperature Precip Pressure Wind  
Friday
07/17/2020
05:00 11:00 57°F   29.91 inHg Light breeze from east 4 mph
  11:00 17:00 88°F   29.92 inHg Light breeze from west-southwest 6 mph
  17:00 23:00 90°F   29.87 inHg Light breeze from west-southwest 6 mph
  23:00 05:00 72°F   29.92 inHg Light air from east-northeast 2 mph
      Temperature Precip Pressure Wind  
Saturday
07/18/2020
05:00 11:00 59°F   29.90 inHg Light breeze from east 5 mph
  11:00 17:00 91°F   29.90 inHg Light breeze from west-southwest 6 mph
  17:00 23:00 93°F   29.86 inHg Light breeze from west-southwest 7 mph
  23:00 05:00 73°F   29.91 inHg Light air from east-northeast 2 mph
      Temperature Precip Pressure Wind  
Sunday
07/19/2020
05:00 11:00 63°F   29.90 inHg Light breeze from east 4 mph
  11:00 17:00 91°F   29.93 inHg Light breeze from west 6 mph
  17:00 23:00 91°F   29.91 inHg Light breeze from west-southwest 7 mph
  23:00 05:00 72°F   29.96 inHg Light air from east 1 mph
      Temperature Precip Pressure Wind  
Monday
07/20/2020
05:00 11:00 61°F   29.96 inHg Light breeze from east-northeast 4 mph
  11:00 17:00 88°F   29.95 inHg Light breeze from west-southwest 7 mph
  17:00 23:00 90°F   29.90 inHg Light breeze from west-southwest 6 mph
  23:00 05:00 73°F   29.91 inHg Light air from east 2 mph
      Temperature Precip Pressure Wind  
Tuesday
07/21/2020
05:00 11:00 63°F   29.89 inHg Light breeze from east 4 mph
How Close Are We To this Month's Temperature Record ?
Updated Sunday, Jul 12, 2020- 3:30:01 PM

Current Temperature: 94.4°F

July's High: Temperature Record 98.1°F - Set on Wed, Jul 29, 2015 - 2:57:00 PM
We are currently 3.7°F Less than this Month's record High

July's Low: Temperature Record 51.4°F - Set on Sun, Jul 10, 2016 - 7:04:00 AM
We are currently 43°F More than this Month's record Low

Weather History For Sunday, July 12, 2020


On this Day - In Weather History ...
Data courtesy of weatherforyou.com
powered by Cumulus v1.9.3 (1059)
Ambient Weather VWS v14.00
Top Website Map Copyright © 2007 - 2020 Foresthillweather.com Never base important decisions on this or any weather information obtained from the Internet